This is the latest recevied weather packets stored in our database for station/object KD8DNS. If no packets are shown the sender has not sent any weather packets the latest 10 day(s).
| Time | Temp. | Humidity | Pressure | Rain* | Wind** | Luminosity | Snow |
|---|---|---|---|---|---|---|---|
| 1788535630 | 33.89° C | 57% | 1019.1 hPa | 0 mm | - | 211 W/m² | - |
| 1788535325 | 33.89° C | 57% | 1019.2 hPa | 0 mm | - | 510 W/m² | - |
| 1788535025 | 33.89° C | 58% | 1019.1 hPa | 0 mm | - | 512 W/m² | - |
| 1788534724 | 33.89° C | 59% | 1018.9 hPa | 0 mm | - | 411 W/m² | - |
| 1788534419 | 33.33° C | 59% | 1019.3 hPa | 0 mm | - | 436 W/m² | - |
| 1788534115 | 33.89° C | 60% | 1019.2 hPa | 0 mm | - | 422 W/m² | - |
| 1788533813 | 33.33° C | 62% | 1019.3 hPa | 0 mm | - | 427 W/m² | - |
| 1788533508 | 32.78° C | 63% | 1019.1 hPa | 0 mm | - | 448 W/m² | - |
| 1788533204 | 32.22° C | 66% | 1019.1 hPa | 0 mm | - | 220 W/m² | - |
| 1788532899 | 32.22° C | 66% | 1019.2 hPa | 0 mm | - | 413 W/m² | - |
| 1788532595 | 32.22° C | 66% | 1019.1 hPa | 0 mm | - | 382 W/m² | - |
| 1788532292 | 31.67° C | 68% | 1019.3 hPa | 0 mm | - | 398 W/m² | - |
| 1788531988 | 31.11° C | 70% | 1019.2 hPa | 0 mm | - | 399 W/m² | - |
| 1788531683 | 31.11° C | 71% | 1019.2 hPa | 0 mm | - | 347 W/m² | - |
| 1788531378 | 31.11° C | 71% | 1019.3 hPa | 0 mm | - | 339 W/m² | - |
| 1788531074 | 31.11° C | 71% | 1019.1 hPa | 0 mm | - | 259 W/m² | - |
| 1788530769 | 30.56° C | 72% | 1019.2 hPa | 0 mm | - | 311 W/m² | - |
| 1788530463 | 30.56° C | 72% | 1019.2 hPa | 0 mm | - | 339 W/m² | - |
| 1788530162 | 30.56° C | 72% | 1019 hPa | 0 mm | - | 355 W/m² | - |
| 1788529859 | 30° C | 74% | 1019.2 hPa | 0 mm | - | 346 W/m² | - |
| 1788529554 | 29.44° C | 76% | 1019.1 hPa | 0 mm | - | 300 W/m² | - |
| 1788529248 | 28.89° C | 78% | 1019.3 hPa | 0 mm | - | 295 W/m² | - |
| 1788528943 | 28.89° C | 79% | 1019.3 hPa | 0 mm | - | 259 W/m² | - |
| 1788528639 | 28.33° C | 80% | 1019.2 hPa | 0 mm | - | 243 W/m² | - |
| 1788528333 | 27.78° C | 80% | 1019.4 hPa | 0 mm | - | 235 W/m² | - |
* Rain latest hour (hover to see other rain measurements)
** Current wind speed in m/s (hover to see current wind gust speed)